Salalah Airport

Jump to: basic info | weather | frequencies | runways | comments

Related pages: nearby airports | nearby navaids | notams | map

Basic information (top)

Codes: SLL OOSA
Location: lon 17.038700, lat 54.091301, elev 73 ft / 22 m msl
Status: medium_airport
Scheduled airline service: yes
Links: Wikipedia Mobile

Weather (top)

Current conditions (rec'd 2014/07/31 10:50Z):

OOSA 311050Z 18007KT 140V210 4500 HZ SCT006 BKN010 OVC020 27/24 Q1003 NOSIG RMK05 RH83

Airport forecast (rec'd 2014/07/31 06:00Z):

TAF OOSA 310500Z 3106/0112 13003KT 0600 -DZFG SCT003 BKN008 OVC018 
      BECMG 3108/3110 2500 -DZ 
      BECMG 3118/3120 1500 -DZ/DZ

Frequencies (top)

Verify before use: may be inaccurate or out of date.

APP: 119.1 MHz (APP)
RDR: 119.1 MHz (RDR)
TWR: 118.2 MHz (TWR)

Runways (top)

07/25: 10,965 x 148 ft (3,342 x 45 m) — paved — lighted

17/35 [CLOSED]: 4,196 x 59 ft (1,279 x 18 m) — grass — not lighted

Latest comments (top)

No comments yet for Salalah Airport

More... (top)

See also NOTAMs and nearby airports and navaids, or visit the Salalah Airport page at the main OurAirports website..